Location: Asheville, NC
(35.6000°N, 82.5500°W)
Time: 21:55:34
(UTC-04:00)

PCSat - Visible Passes

Search period start: 16 July 2018 00:00
Search period end: 26 July 2018 00:00
Orbit: 784 x 796 km, 67.1° (Epoch: 16 July)

Date Brightness Start Highest point End Pass type
(mag) Time Alt. Az. Time Alt. Az. Time Alt. Az.
16 Jul 10.9 02:04:32 10° N 02:09:24 33° NE 02:09:45 32° ENE visible
16 Jul 11.1 03:48:00 10° NW 03:50:23 22° WNW 03:50:23 22° WNW visible
17 Jul 11.3 01:33:57 10° N 01:38:19 24° NE 01:38:51 24° ENE visible
17 Jul 10.9 03:16:45 10° NW 03:19:30 28° WNW 03:19:30 28° WNW visible
18 Jul 11.7 01:03:32 10° N 01:07:12 18° NE 01:08:03 17° ENE visible
18 Jul 10.8 02:45:39 10° NNW 02:48:43 34° NW 02:48:43 34° NW visible
19 Jul 11.9 00:33:26 10° NNE 00:36:01 13° NE 00:37:22 12° ENE visible
19 Jul 10.7 02:14:40 10° NNW 02:18:01 39° NNW 02:18:01 39° NNW visible
20 Jul 10.7 01:43:46 10° NNW 01:47:24 42° N 01:47:24 42° N visible
21 Jul 10.7 01:12:58 10° NNW 01:16:51 39° NNE 01:16:51 39° NNE visible
21 Jul 12.0 02:57:21 10° WNW 02:57:32 11° WNW 02:57:32 11° WNW visible
22 Jul 10.9 00:42:16 10° N 00:46:21 32° NE 00:46:21 32° NE visible
22 Jul 11.8 02:25:50 10° NW 02:27:02 16° WNW 02:27:02 16° WNW visible
23 Jul 11.2 00:11:40 10° N 00:15:54 25° NE 00:15:54 25° NE visible
23 Jul 11.5 01:54:34 10° NW 01:56:35 22° NW 01:56:35 22° NW visible
23 Jul 11.4 23:41:13 10° N 23:45:00 19° NE 23:45:29 19° ENE visible
24 Jul 11.1 01:23:27 10° NW 01:26:10 29° NW 01:26:10 29° NW visible
24 Jul 11.7 23:11:03 10° NNE 23:13:49 14° NE 23:15:07 13° ENE visible
25 Jul 10.7 00:52:26 10° NNW 00:55:48 39° NNW 00:55:48 39° NNW visible
25 Jul 12.0 22:42:06 10° NE 22:42:35 10° NE 22:43:05 10° NE visible
